Time,TemperatureF,DewpointF,PressureIn,WindDirection,WindDirectionDegrees,WindSpeedMPH,WindSpeedGustMPH,Humidity,HourlyPrecipIn,Conditions,Clouds,dailyrainin,SoftwareType,DateUTC
2013-01-22 00:00:00,10.4,5.2,30.11,West,281,6.0,-999.0,79,0.00,,,0.00,Wunderground v.1.15,2013-01-22 05:00:00,
2013-01-22 00:02:00,10.4,5.5,30.11,WNW,283,6.0,-999.0,80,0.00,,,0.00,Wunderground v.1.15,2013-01-22 05:02:00,
2013-01-22 00:06:00,10.2,5.8,30.11,WNW,299,6.0,-999.0,82,0.00,,,0.00,Wunderground v.1.15,2013-01-22 05:06:00,
2013-01-22 00:10:00,10.1,6.0,30.11,WNW,302,5.0,-999.0,83,0.00,,,0.00,Wunderground v.1.15,2013-01-22 05:10:00,
2013-01-22 00:16:00,9.9,5.8,30.11,WNW,297,3.0,-999.0,83,0.00,,,0.00,Wunderground v.1.15,2013-01-22 05:16:00,
2013-01-22 00:22:00,9.9,5.8,30.11,WNW,292,3.0,-999.0,83,0.00,,,0.00,Wunderground v.1.15,2013-01-22 05:22:00,
2013-01-22 00:28:00,9.9,5.8,30.11,WNW,294,3.0,-999.0,83,0.00,,,0.00,Wunderground v.1.15,2013-01-22 05:28:00,
2013-01-22 00:33:00,9.8,4.9,30.11,West,266,4.0,-999.0,80,0.00,,,0.00,Wunderground v.1.15,2013-01-22 05:33:00,
2013-01-22 00:39:00,9.8,4.3,30.11,NW,306,6.0,-999.0,78,0.00,,,0.00,Wunderground v.1.15,2013-01-22 05:39:00,
2013-01-22 00:45:00,9.7,3.7,30.11,WNW,283,6.0,-999.0,76,0.00,,,0.00,Wunderground v.1.15,2013-01-22 05:45:00,
2013-01-22 00:51:00,9.6,2.7,30.11,WNW,283,7.0,-999.0,73,0.00,,,0.00,Wunderground v.1.15,2013-01-22 05:51:00,
2013-01-22 00:56:00,9.5,2.0,30.11,NW,310,7.0,-999.0,71,0.00,,,0.00,Wunderground v.1.15,2013-01-22 05:56:00,
2013-01-22 01:02:00,9.4,1.6,30.11,WNW,300,7.0,-999.0,70,0.00,,,0.00,Wunderground v.1.15,2013-01-22 06:02:00,
2013-01-22 01:08:00,9.3,1.2,30.11,WNW,285,6.0,-999.0,69,0.00,,,0.00,Wunderground v.1.15,2013-01-22 06:08:00,
2013-01-22 01:14:00,9.2,1.1,30.11,WNW,291,6.0,-999.0,69,0.00,,,0.00,Wunderground v.1.15,2013-01-22 06:14:00,
2013-01-22 01:20:00,9.1,1.0,30.11,West,269,6.0,-999.0,69,0.00,,,0.00,Wunderground v.1.15,2013-01-22 06:20:00,
2013-01-22 01:25:00,9.0,0.6,30.12,West,265,6.0,-999.0,68,0.00,,,0.00,Wunderground v.1.15,2013-01-22 06:25:00,
2013-01-22 01:31:00,9.0,0.6,30.12,West,273,5.0,-999.0,68,0.00,,,0.00,Wunderground v.1.15,2013-01-22 06:31:00,
2013-01-22 01:37:00,9.0,0.6,30.12,NW,313,6.0,-999.0,68,0.00,,,0.00,Wunderground v.1.15,2013-01-22 06:37:00,
2013-01-22 01:42:00,9.0,0.3,30.12,West,281,6.0,-999.0,67,0.00,,,0.00,Wunderground v.1.15,2013-01-22 06:42:00,
2013-01-22 01:48:00,9.0,0.3,30.12,NW,323,7.0,-999.0,67,0.00,,,0.00,Wunderground v.1.15,2013-01-22 06:48:00,
2013-01-22 01:54:00,8.9,-0.2,30.13,NW,305,7.0,-999.0,66,0.00,,,0.00,Wunderground v.1.15,2013-01-22 06:54:00,
2013-01-22 02:00:00,8.9,-0.2,30.13,WNW,292,6.0,-999.0,66,0.00,,,0.00,Wunderground v.1.15,2013-01-22 07:00:00,
2013-01-22 02:06:00,8.8,-0.3,30.13,WNW,299,6.0,-999.0,66,0.00,,,0.00,Wunderground v.1.15,2013-01-22 07:06:00,
2013-01-22 02:12:00,8.7,-0.7,30.13,WNW,296,6.0,-999.0,65,0.00,,,0.00,Wunderground v.1.15,2013-01-22 07:12:00,
2013-01-22 02:18:00,8.6,-0.4,30.14,West,281,5.0,-999.0,66,0.00,,,0.00,Wunderground v.1.15,2013-01-22 07:18:00,
2013-01-22 02:24:00,8.6,-0.4,30.14,WNW,294,5.0,-999.0,66,0.00,,,0.00,Wunderground v.1.15,2013-01-22 07:24:00,
2013-01-22 02:30:00,8.5,-0.5,30.14,WNW,302,5.0,-999.0,66,0.00,,,0.00,Wunderground v.1.15,2013-01-22 07:30:00,
2013-01-22 02:36:00,8.5,-0.9,30.14,WSW,258,5.0,-999.0,65,0.00,,,0.00,Wunderground v.1.15,2013-01-22 07:36:00,
2013-01-22 02:42:00,8.5,-0.9,30.15,WNW,291,6.0,-999.0,65,0.00,,,0.00,Wunderground v.1.15,2013-01-22 07:42:00,
2013-01-22 02:47:00,8.4,-1.0,30.15,WNW,300,4.0,-999.0,65,0.00,,,0.00,Wunderground v.1.15,2013-01-22 07:47:00,
2013-01-22 02:53:00,8.3,-0.7,30.15,WNW,298,4.0,-999.0,66,0.00,,,0.00,Wunderground v.1.15,2013-01-22 07:53:00,
2013-01-22 02:58:00,8.3,-0.7,30.15,WNW,288,5.0,-999.0,66,0.00,,,0.00,Wunderground v.1.15,2013-01-22 07:58:00,
2013-01-22 03:04:00,8.3,-1.1,30.15,NW,304,5.0,-999.0,65,0.00,,,0.00,Wunderground v.1.15,2013-01-22 08:04:00,
2013-01-22 03:10:00,8.3,-1.1,30.15,WNW,293,6.0,-999.0,65,0.00,,,0.00,Wunderground v.1.15,2013-01-22 08:10:00,
2013-01-22 03:16:00,8.2,-1.2,30.15,West,275,5.0,-999.0,65,0.00,,,0.00,Wunderground v.1.15,2013-01-22 08:16:00,
2013-01-22 03:22:00,8.2,-1.5,30.15,WNW,288,6.0,-999.0,64,0.00,,,0.00,Wunderground v.1.15,2013-01-22 08:22:00,
2013-01-22 03:28:00,8.3,-1.4,30.15,WNW,296,6.0,-999.0,64,0.00,,,0.00,Wunderground v.1.15,2013-01-22 08:28:00,
2013-01-22 03:34:00,8.2,-1.5,30.15,WNW,297,5.0,-999.0,64,0.00,,,0.00,Wunderground v.1.15,2013-01-22 08:34:00,
2013-01-22 03:40:00,8.0,-1.7,30.15,WNW,296,5.0,-999.0,64,0.00,,,0.00,Wunderground v.1.15,2013-01-22 08:40:00,
2013-01-22 03:46:00,7.9,-1.8,30.15,NW,304,5.0,-999.0,64,0.00,,,0.00,Wunderground v.1.15,2013-01-22 08:46:00,
2013-01-22 03:51:00,8.0,-1.7,30.15,West,280,5.0,-999.0,64,0.00,,,0.00,Wunderground v.1.15,2013-01-22 08:51:00,
2013-01-22 03:56:00,7.9,-1.4,30.16,WSW,251,5.0,-999.0,65,0.00,,,0.00,Wunderground v.1.15,2013-01-22 08:56:00,
2013-01-22 04:02:00,7.9,-1.4,30.15,WNW,294,5.0,-999.0,65,0.00,,,0.00,Wunderground v.1.15,2013-01-22 09:02:00,
2013-01-22 04:08:00,7.9,-1.4,30.15,West,265,6.0,-999.0,65,0.00,,,0.00,Wunderground v.1.15,2013-01-22 09:08:00,
2013-01-22 04:13:00,7.8,-1.5,30.15,WNW,286,4.0,-999.0,65,0.00,,,0.00,Wunderground v.1.15,2013-01-22 09:13:00,
2013-01-22 04:19:00,7.7,-1.3,30.15,WNW,296,3.0,-999.0,66,0.00,,,0.00,Wunderground v.1.15,2013-01-22 09:19:00,
2013-01-22 04:25:00,7.6,-1.4,30.15,WNW,296,3.0,-999.0,66,0.00,,,0.00,Wunderground v.1.15,2013-01-22 09:25:00,
2013-01-22 04:31:00,7.4,-1.3,30.15,West,271,2.0,-999.0,67,0.00,,,0.00,Wunderground v.1.15,2013-01-22 09:31:00,
2013-01-22 04:36:00,7.3,-1.4,30.16,WNW,291,3.0,-999.0,67,0.00,,,0.00,Wunderground v.1.15,2013-01-22 09:36:00,
2013-01-22 04:42:00,7.3,-1.1,30.16,West,281,3.0,-999.0,68,0.00,,,0.00,Wunderground v.1.15,2013-01-22 09:42:00,
2013-01-22 04:48:00,7.2,-1.2,30.16,WNW,287,3.0,-999.0,68,0.00,,,0.00,Wunderground v.1.15,2013-01-22 09:48:00,
2013-01-22 04:54:00,7.2,-1.2,30.16,WNW,296,3.0,-999.0,68,0.00,,,0.00,Wunderground v.1.15,2013-01-22 09:54:00,
2013-01-22 05:00:00,7.1,-0.9,30.16,NW,306,3.0,-999.0,69,0.00,,,0.00,Wunderground v.1.15,2013-01-22 10:00:00,
2013-01-22 05:06:00,7.2,-1.2,30.16,WNW,300,4.0,-999.0,68,0.00,,,0.00,Wunderground v.1.15,2013-01-22 10:06:00,
2013-01-22 05:12:00,7.2,-1.2,30.16,WNW,283,4.0,-999.0,68,0.00,,,0.00,Wunderground v.1.15,2013-01-22 10:12:00,
2013-01-22 05:18:00,7.1,-0.9,30.17,NW,304,3.0,-999.0,69,0.00,,,0.00,Wunderground v.1.15,2013-01-22 10:18:00,
2013-01-22 05:23:00,7.1,-0.9,30.17,WNW,297,4.0,-999.0,69,0.00,,,0.00,Wunderground v.1.15,2013-01-22 10:23:00,
2013-01-22 05:29:00,7.2,-1.2,30.17,NW,304,4.0,-999.0,68,0.00,,,0.00,Wunderground v.1.15,2013-01-22 10:29:00,
2013-01-22 05:35:00,7.1,-1.2,30.17,WNW,295,4.0,-999.0,68,0.00,,,0.00,Wunderground v.1.15,2013-01-22 10:35:00,
2013-01-22 05:41:00,7.2,-0.8,30.18,West,259,4.0,-999.0,69,0.00,,,0.00,Wunderground v.1.15,2013-01-22 10:41:00,
2013-01-22 05:47:00,7.0,-1.0,30.18,WNW,296,3.0,-999.0,69,0.00,,,0.00,Wunderground v.1.15,2013-01-22 10:47:00,
2013-01-22 05:53:00,7.0,-1.0,30.18,WNW,301,3.0,-999.0,69,0.00,,,0.00,Wunderground v.1.15,2013-01-22 10:53:00,
2013-01-22 05:59:00,7.0,-1.0,30.18,WNW,294,3.0,-999.0,69,0.00,,,0.00,Wunderground v.1.15,2013-01-22 10:59:00,
2013-01-22 06:05:00,7.0,-1.0,30.18,WNW,290,3.0,-999.0,69,0.00,,,0.00,Wunderground v.1.15,2013-01-22 11:05:00,
2013-01-22 06:10:00,7.0,-1.0,30.19,WNW,290,4.0,-999.0,69,0.00,,,0.00,Wunderground v.1.15,2013-01-22 11:10:00,
2013-01-22 06:16:00,7.1,-0.9,30.19,WNW,287,5.0,-999.0,69,0.00,,,0.00,Wunderground v.1.15,2013-01-22 11:16:00,
2013-01-22 06:22:00,7.0,-1.0,30.20,WNW,296,4.0,-999.0,69,0.00,,,0.00,Wunderground v.1.15,2013-01-22 11:22:00,
2013-01-22 06:28:00,7.0,-0.7,30.20,WNW,293,3.0,-999.0,70,0.00,,,0.00,Wunderground v.1.15,2013-01-22 11:28:00,
2013-01-22 06:34:00,7.1,-0.6,30.20,WNW,286,4.0,-999.0,70,0.00,,,0.00,Wunderground v.1.15,2013-01-22 11:34:00,
2013-01-22 06:39:00,6.9,-1.1,30.20,West,261,3.0,-999.0,69,0.00,,,0.00,Wunderground v.1.15,2013-01-22 11:39:00,
2013-01-22 06:45:00,6.9,-0.8,30.20,WNW,290,3.0,-999.0,70,0.00,,,0.00,Wunderground v.1.15,2013-01-22 11:45:00,
2013-01-22 06:51:00,6.9,-0.8,30.21,WNW,290,3.0,-999.0,70,0.00,,,0.00,Wunderground v.1.15,2013-01-22 11:51:00,
2013-01-22 06:56:00,6.8,-0.9,30.21,WNW,290,2.0,-999.0,70,0.00,,,0.00,Wunderground v.1.15,2013-01-22 11:56:00,
2013-01-22 07:02:00,6.7,-1.0,30.21,West,279,2.0,-999.0,70,0.00,,,0.00,Wunderground v.1.15,2013-01-22 12:02:00,
2013-01-22 07:07:00,6.7,-0.7,30.22,West,260,3.0,-999.0,71,0.00,,,0.00,Wunderground v.1.15,2013-01-22 12:07:00,
2013-01-22 07:12:00,6.7,-0.7,30.22,NW,308,4.0,-999.0,71,0.00,,,0.00,Wunderground v.1.15,2013-01-22 12:12:00,
2013-01-22 07:18:00,6.7,-1.0,30.22,WNW,282,4.0,-999.0,70,0.00,,,0.00,Wunderground v.1.15,2013-01-22 12:18:00,
2013-01-22 07:24:00,6.7,-1.0,30.22,WNW,282,4.0,-999.0,70,0.00,,,0.00,Wunderground v.1.15,2013-01-22 12:24:00,
2013-01-22 07:30:00,6.7,-1.3,30.22,WNW,296,5.0,-999.0,69,0.00,,,0.00,Wunderground v.1.15,2013-01-22 12:30:00,
2013-01-22 07:36:00,6.5,-1.2,30.22,WNW,296,3.0,-999.0,70,0.00,,,0.00,Wunderground v.1.15,2013-01-22 12:36:00,
2013-01-22 07:42:00,6.4,-1.3,30.22,WNW,298,2.0,-999.0,70,0.00,,,0.00,Wunderground v.1.15,2013-01-22 12:42:00,
2013-01-22 07:47:00,6.4,-1.0,30.22,NW,309,3.0,-999.0,71,0.00,,,0.00,Wunderground v.1.15,2013-01-22 12:47:00,
2013-01-22 07:52:00,6.4,-1.3,30.23,WSW,252,4.0,-999.0,70,0.00,,,0.00,Wunderground v.1.15,2013-01-22 12:52:00,
2013-01-22 07:58:00,6.4,-1.3,30.23,NW,319,4.0,-999.0,70,0.00,,,0.00,Wunderground v.1.15,2013-01-22 12:58:00,
2013-01-22 08:03:00,6.5,-1.2,30.23,WNW,298,5.0,-999.0,70,0.00,,,0.00,Wunderground v.1.15,2013-01-22 13:03:00,
2013-01-22 08:08:00,6.5,-1.2,30.23,West,280,4.0,-999.0,70,0.00,,,0.00,Wunderground v.1.15,2013-01-22 13:08:00,
2013-01-22 08:14:00,6.5,-1.2,30.24,West,265,3.0,-999.0,70,0.00,,,0.00,Wunderground v.1.15,2013-01-22 13:14:00,
2013-01-22 08:23:00,6.5,-0.9,30.24,WSW,251,3.0,-999.0,71,0.00,,,0.00,Wunderground v.1.15,2013-01-22 13:23:00,
2013-01-22 08:28:00,6.7,-0.7,30.24,West,281,4.0,-999.0,71,0.00,,,0.00,Wunderground v.1.15,2013-01-22 13:28:00,
2013-01-22 08:34:00,6.9,-0.5,30.24,WNW,293,3.0,-999.0,71,0.00,,,0.00,Wunderground v.1.15,2013-01-22 13:34:00,
2013-01-22 08:39:00,7.1,-0.6,30.24,West,273,2.0,-999.0,70,0.00,,,0.00,Wunderground v.1.15,2013-01-22 13:39:00,
2013-01-22 08:44:00,7.3,-0.4,30.25,WNW,300,3.0,-999.0,70,0.00,,,0.00,Wunderground v.1.15,2013-01-22 13:44:00,
2013-01-22 08:50:00,7.5,-0.2,30.25,WNW,296,4.0,-999.0,70,0.00,,,0.00,Wunderground v.1.15,2013-01-22 13:50:00,
2013-01-22 08:56:00,7.7,-0.1,30.25,WSW,250,4.0,-999.0,70,0.00,,,0.00,Wunderground v.1.15,2013-01-22 13:56:00,
2013-01-22 09:02:00,7.8,0.0,30.25,WNW,297,4.0,-999.0,70,0.00,,,0.00,Wunderground v.1.15,2013-01-22 14:02:00,
2013-01-22 09:08:00,8.0,0.2,30.25,WSW,256,5.0,-999.0,70,0.00,,,0.00,Wunderground v.1.15,2013-01-22 14:08:00,
2013-01-22 09:14:00,8.1,0.0,30.26,NW,312,6.0,-999.0,69,0.00,,,0.00,Wunderground v.1.15,2013-01-22 14:14:00,
2013-01-22 09:20:00,8.1,0.0,30.26,West,263,6.0,-999.0,69,0.00,,,0.00,Wunderground v.1.15,2013-01-22 14:20:00,
2013-01-22 09:25:00,8.4,0.3,30.26,West,271,7.0,-999.0,69,0.00,,,0.00,Wunderground v.1.15,2013-01-22 14:25:00,
2013-01-22 09:31:00,8.5,0.4,30.26,WNW,303,7.0,-999.0,69,0.00,,,0.00,Wunderground v.1.15,2013-01-22 14:31:00,
2013-01-22 09:37:00,8.6,0.2,30.26,WNW,288,7.0,-999.0,68,0.00,,,0.00,Wunderground v.1.15,2013-01-22 14:37:00,
2013-01-22 09:43:00,8.4,0.0,30.26,NW,310,6.0,-999.0,68,0.00,,,0.00,Wunderground v.1.15,2013-01-22 14:43:00,
2013-01-22 09:48:00,8.4,0.0,30.26,NW,314,4.0,-999.0,68,0.00,,,0.00,Wunderground v.1.15,2013-01-22 14:48:00,
2013-01-22 09:54:00,8.5,0.1,30.27,WNW,298,4.0,-999.0,68,0.00,,,0.00,Wunderground v.1.15,2013-01-22 14:54:00,
2013-01-22 10:00:00,8.3,-0.4,30.27,WNW,287,4.0,-999.0,67,0.00,,,0.00,Wunderground v.1.15,2013-01-22 15:00:00,
2013-01-22 10:06:00,8.1,-0.9,30.27,NW,305,7.0,-999.0,66,0.00,,,0.00,Wunderground v.1.15,2013-01-22 15:06:00,
2013-01-22 10:11:00,8.1,-0.6,30.27,WNW,303,6.0,-999.0,67,0.00,,,0.00,Wunderground v.1.15,2013-01-22 15:11:00,
2013-01-22 10:16:00,8.4,0.0,30.27,NNW,345,6.0,-999.0,68,0.00,,,0.00,Wunderground v.1.15,2013-01-22 15:16:00,
2013-01-22 10:22:00,8.6,0.2,30.28,West,267,7.0,-999.0,68,0.00,,,0.00,Wunderground v.1.15,2013-01-22 15:22:00,
2013-01-22 10:28:00,8.7,0.0,30.28,West,267,6.0,-999.0,67,0.00,,,0.00,Wunderground v.1.15,2013-01-22 15:28:00,
2013-01-22 10:34:00,9.5,1.1,30.28,NW,307,4.0,-999.0,68,0.00,,,0.00,Wunderground v.1.15,2013-01-22 15:34:00,
2013-01-22 10:40:00,9.7,0.9,30.28,NW,323,4.0,-999.0,67,0.00,,,0.00,Wunderground v.1.15,2013-01-22 15:40:00,
2013-01-22 10:45:00,9.6,0.2,30.28,WNW,296,6.0,-999.0,65,0.00,,,0.00,Wunderground v.1.15,2013-01-22 15:45:00,
2013-01-22 10:51:00,9.6,0.2,30.29,NW,319,5.0,-999.0,65,0.00,,,0.00,Wunderground v.1.15,2013-01-22 15:51:00,
2013-01-22 10:56:00,9.6,-0.5,30.29,NE,39,6.0,-999.0,63,0.00,,,0.00,Wunderground v.1.15,2013-01-22 15:56:00,
2013-01-22 11:02:00,9.5,-0.6,30.29,NW,316,4.0,-999.0,63,0.00,,,0.00,Wunderground v.1.15,2013-01-22 16:02:00,
2013-01-22 11:08:00,9.5,-0.2,30.29,WNW,296,3.0,-999.0,64,0.00,,,0.00,Wunderground v.1.15,2013-01-22 16:08:00,
2013-01-22 11:14:00,9.4,-0.3,30.28,WNW,299,6.0,-999.0,64,0.00,,,0.00,Wunderground v.1.15,2013-01-22 16:14:00,
2013-01-22 11:20:00,9.6,0.5,30.28,WNW,290,5.0,-999.0,66,0.00,,,0.00,Wunderground v.1.15,2013-01-22 16:20:00,
2013-01-22 11:25:00,9.4,0.6,30.28,NW,308,5.0,-999.0,67,0.00,,,0.00,Wunderground v.1.15,2013-01-22 16:25:00,
2013-01-22 11:31:00,9.5,0.7,30.28,WNW,292,4.0,-999.0,67,0.00,,,0.00,Wunderground v.1.15,2013-01-22 16:31:00,
2013-01-22 11:37:00,10.0,1.5,30.28,WNW,298,3.0,-999.0,68,0.00,,,0.00,Wunderground v.1.15,2013-01-22 16:37:00,
2013-01-22 11:43:00,10.0,1.2,30.27,NW,304,4.0,-999.0,67,0.00,,,0.00,Wunderground v.1.15,2013-01-22 16:43:00,
2013-01-22 11:48:00,10.2,0.4,30.27,NNW,340,4.0,-999.0,64,0.00,,,0.00,Wunderground v.1.15,2013-01-22 16:48:00,
2013-01-22 11:54:00,10.4,0.6,30.27,NE,38,4.0,-999.0,64,0.00,,,0.00,Wunderground v.1.15,2013-01-22 16:54:00,
2013-01-22 11:59:00,10.5,0.7,30.27,NW,313,3.0,-999.0,64,0.00,,,0.00,Wunderground v.1.15,2013-01-22 16:59:00,
2013-01-22 12:04:00,10.9,0.8,30.27,NW,309,2.0,-999.0,63,0.00,,,0.00,Wunderground v.1.15,2013-01-22 17:04:00,
2013-01-22 12:10:00,11.4,0.9,30.27,WNW,284,3.0,-999.0,62,0.00,,,0.00,Wunderground v.1.15,2013-01-22 17:10:00,
2013-01-22 12:16:00,11.7,1.2,30.26,WNW,295,5.0,-999.0,62,0.00,,,0.00,Wunderground v.1.15,2013-01-22 17:16:00,
2013-01-22 12:22:00,12.3,2.1,30.26,NW,317,4.0,-999.0,63,0.00,,,0.00,Wunderground v.1.15,2013-01-22 17:22:00,
2013-01-22 12:28:00,12.3,2.1,30.26,West,259,4.0,-999.0,63,0.00,,,0.00,Wunderground v.1.15,2013-01-22 17:28:00,
2013-01-22 12:34:00,12.4,1.8,30.26,NNW,327,6.0,-999.0,62,0.00,,,0.00,Wunderground v.1.15,2013-01-22 17:34:00,
2013-01-22 12:40:00,11.8,1.3,30.26,NW,304,8.0,-999.0,62,0.00,,,0.00,Wunderground v.1.15,2013-01-22 17:40:00,
2013-01-22 12:46:00,11.9,2.0,30.26,North,355,7.0,-999.0,64,0.00,,,0.00,Wunderground v.1.15,2013-01-22 17:46:00,
2013-01-22 12:51:00,12.4,2.9,30.25,WNW,297,4.0,-999.0,65,0.00,,,0.00,Wunderground v.1.15,2013-01-22 17:51:00,
2013-01-22 12:57:00,12.3,2.4,30.26,NW,309,4.0,-999.0,64,0.00,,,0.00,Wunderground v.1.15,2013-01-22 17:57:00,
2013-01-22 13:03:00,12.5,1.6,30.25,WNW,294,4.0,-999.0,61,0.00,,,0.00,Wunderground v.1.15,2013-01-22 18:03:00,
2013-01-22 13:09:00,12.5,1.6,30.25,West,281,6.0,-999.0,61,0.00,,,0.00,Wunderground v.1.15,2013-01-22 18:09:00,
2013-01-22 13:14:00,11.7,0.8,30.25,West,268,7.0,-999.0,61,0.00,,,0.00,Wunderground v.1.15,2013-01-22 18:14:00,
2013-01-22 13:19:00,11.1,0.6,30.25,WNW,300,8.0,-999.0,62,0.00,,,0.00,Wunderground v.1.15,2013-01-22 18:19:00,
2013-01-22 13:24:00,11.1,0.9,30.25,WNW,301,6.0,-999.0,63,0.00,,,0.00,Wunderground v.1.15,2013-01-22 18:24:00,
2013-01-22 13:31:00,11.3,1.5,30.25,NW,307,5.0,-999.0,64,0.00,,,0.00,Wunderground v.1.15,2013-01-22 18:31:00,
2013-01-22 13:36:00,12.0,2.8,30.25,WNW,294,5.0,-999.0,66,0.00,,,0.00,Wunderground v.1.15,2013-01-22 18:36:00,
2013-01-22 13:42:00,12.2,1.3,30.24,SW,236,6.0,-999.0,61,0.00,,,0.00,Wunderground v.1.15,2013-01-22 18:42:00,
2013-01-22 13:47:00,12.2,0.9,30.24,West,265,8.0,-999.0,60,0.00,,,0.00,Wunderground v.1.15,2013-01-22 18:47:00,
2013-01-22 13:52:00,12.1,1.9,30.24,WSW,249,8.0,-999.0,63,0.00,,,0.00,Wunderground v.1.15,2013-01-22 18:52:00,
2013-01-22 13:58:00,11.4,1.2,30.25,West,271,7.0,-999.0,63,0.00,,,0.00,Wunderground v.1.15,2013-01-22 18:58:00,
2013-01-22 14:04:00,11.2,2.0,30.24,WSW,254,7.0,-999.0,66,0.00,,,0.00,Wunderground v.1.15,2013-01-22 19:04:00,
2013-01-22 14:10:00,11.2,2.4,30.24,WNW,303,6.0,-999.0,67,0.00,,,0.00,Wunderground v.1.15,2013-01-22 19:10:00,
2013-01-22 14:16:00,11.3,2.5,30.24,West,280,6.0,-999.0,67,0.00,,,0.00,Wunderground v.1.15,2013-01-22 19:16:00,
2013-01-22 14:22:00,11.8,2.6,30.24,NW,304,4.0,-999.0,66,0.00,,,0.00,Wunderground v.1.15,2013-01-22 19:22:00,
2013-01-22 14:28:00,12.4,3.2,30.24,WSW,237,4.0,-999.0,66,0.00,,,0.00,Wunderground v.1.15,2013-01-22 19:28:00,
2013-01-22 14:34:00,12.8,2.6,30.24,NW,305,6.0,-999.0,63,0.00,,,0.00,Wunderground v.1.15,2013-01-22 19:34:00,
2013-01-22 14:40:00,12.6,2.0,30.24,WNW,296,6.0,-999.0,62,0.00,,,0.00,Wunderground v.1.15,2013-01-22 19:40:00,
2013-01-22 14:46:00,13.5,3.9,30.24,WNW,287,5.0,-999.0,65,0.00,,,0.00,Wunderground v.1.15,2013-01-22 19:46:00,
2013-01-22 14:51:00,13.7,3.4,30.24,WNW,296,6.0,-999.0,63,0.00,,,0.00,Wunderground v.1.15,2013-01-22 19:51:00,
2013-01-22 14:56:00,14.3,3.3,30.25,WNW,298,7.0,-999.0,61,0.00,,,0.00,Wunderground v.1.15,2013-01-22 19:56:00,
2013-01-22 15:02:00,13.3,1.6,30.24,WSW,250,7.0,-999.0,59,0.00,,,0.00,Wunderground v.1.15,2013-01-22 20:02:00,
2013-01-22 15:07:00,12.9,2.7,30.25,WNW,284,7.0,-999.0,63,0.00,,,0.00,Wunderground v.1.15,2013-01-22 20:07:00,
2013-01-22 15:13:00,12.5,2.3,30.25,WSW,257,6.0,-999.0,63,0.00,,,0.00,Wunderground v.1.15,2013-01-22 20:13:00,
2013-01-22 15:19:00,12.3,1.7,30.25,WNW,283,6.0,-999.0,62,0.00,,,0.00,Wunderground v.1.15,2013-01-22 20:19:00,
2013-01-22 15:25:00,12.5,1.9,30.25,SW,231,6.0,-999.0,62,0.00,,,0.00,Wunderground v.1.15,2013-01-22 20:25:00,
2013-01-22 15:31:00,12.7,1.8,30.25,West,273,7.0,-999.0,61,0.00,,,0.00,Wunderground v.1.15,2013-01-22 20:31:00,
2013-01-22 15:37:00,12.1,1.9,30.26,WNW,285,7.0,-999.0,63,0.00,,,0.00,Wunderground v.1.15,2013-01-22 20:37:00,
2013-01-22 15:43:00,12.2,2.7,30.26,WSW,242,6.0,-999.0,65,0.00,,,0.00,Wunderground v.1.15,2013-01-22 20:43:00,
2013-01-22 15:49:00,12.6,2.0,30.26,NW,309,6.0,-999.0,62,0.00,,,0.00,Wunderground v.1.15,2013-01-22 20:49:00,
2013-01-22 15:54:00,12.9,2.3,30.26,WSW,244,5.0,-999.0,62,0.00,,,0.00,Wunderground v.1.15,2013-01-22 20:54:00,
2013-01-22 16:00:00,13.1,1.8,30.26,WSW,239,5.0,-999.0,60,0.00,,,0.00,Wunderground v.1.15,2013-01-22 21:00:00,
2013-01-22 16:06:00,13.6,2.3,30.26,West,274,7.0,-999.0,60,0.00,,,0.00,Wunderground v.1.15,2013-01-22 21:06:00,
2013-01-22 16:11:00,13.4,1.7,30.26,West,275,7.0,-999.0,59,0.00,,,0.00,Wunderground v.1.15,2013-01-22 21:11:00,
2013-01-22 16:17:00,12.8,1.5,30.26,West,269,7.0,-999.0,60,0.00,,,0.00,Wunderground v.1.15,2013-01-22 21:17:00,
2013-01-22 16:23:00,12.7,1.4,30.27,West,279,6.0,-999.0,60,0.00,,,0.00,Wunderground v.1.15,2013-01-22 21:23:00,
2013-01-22 16:28:00,12.3,1.0,30.27,West,271,6.0,-999.0,60,0.00,,,0.00,Wunderground v.1.15,2013-01-22 21:28:00,
2013-01-22 16:33:00,12.1,1.2,30.27,WNW,299,7.0,-999.0,61,0.00,,,0.00,Wunderground v.1.15,2013-01-22 21:33:00,
2013-01-22 16:39:00,11.8,1.6,30.27,WNW,292,7.0,-999.0,63,0.00,,,0.00,Wunderground v.1.15,2013-01-22 21:39:00,
2013-01-22 16:45:00,11.7,1.5,30.27,WNW,298,6.0,-999.0,63,0.00,,,0.00,Wunderground v.1.15,2013-01-22 21:45:00,
2013-01-22 16:51:00,11.7,2.2,30.27,WNW,303,5.0,-999.0,65,0.00,,,0.00,Wunderground v.1.15,2013-01-22 21:51:00,
2013-01-22 16:56:00,11.6,2.4,30.27,West,276,5.0,-999.0,66,0.00,,,0.00,Wunderground v.1.15,2013-01-22 21:56:00,
2013-01-22 17:02:00,11.5,2.7,30.27,WNW,296,5.0,-999.0,67,0.00,,,0.00,Wunderground v.1.15,2013-01-22 22:02:00,
2013-01-22 17:08:00,11.3,2.8,30.27,NW,308,5.0,-999.0,68,0.00,,,0.00,Wunderground v.1.15,2013-01-22 22:08:00,
2013-01-22 17:14:00,11.3,2.8,30.27,WNW,299,5.0,-999.0,68,0.00,,,0.00,Wunderground v.1.15,2013-01-22 22:14:00,
2013-01-22 17:20:00,11.3,2.8,30.27,WNW,302,5.0,-999.0,68,0.00,,,0.00,Wunderground v.1.15,2013-01-22 22:20:00,
2013-01-22 17:26:00,11.5,2.3,30.27,West,277,5.0,-999.0,66,0.00,,,0.00,Wunderground v.1.15,2013-01-22 22:26:00,
2013-01-22 17:31:00,11.6,2.4,30.26,WNW,303,5.0,-999.0,66,0.00,,,0.00,Wunderground v.1.15,2013-01-22 22:31:00,
2013-01-22 17:37:00,11.5,2.7,30.27,West,277,4.0,-999.0,67,0.00,,,0.00,Wunderground v.1.15,2013-01-22 22:37:00,
2013-01-22 17:43:00,11.3,3.4,30.27,WNW,292,3.0,-999.0,70,0.00,,,0.00,Wunderground v.1.15,2013-01-22 22:43:00,
2013-01-22 17:49:00,11.1,3.5,30.27,NW,304,4.0,-999.0,71,0.00,,,0.00,Wunderground v.1.15,2013-01-22 22:49:00,
2013-01-22 17:54:00,11.0,3.7,30.27,NW,308,3.0,-999.0,72,0.00,,,0.00,Wunderground v.1.15,2013-01-22 22:54:00,
2013-01-22 18:00:00,10.9,3.3,30.27,WNW,303,3.0,-999.0,71,0.00,,,0.00,Wunderground v.1.15,2013-01-22 23:00:00,
2013-01-22 18:06:00,10.8,3.2,30.27,NW,304,3.0,-999.0,71,0.00,,,0.00,Wunderground v.1.15,2013-01-22 23:06:00,
2013-01-22 18:12:00,10.9,2.4,30.28,WNW,299,4.0,-999.0,68,0.00,,,0.00,Wunderground v.1.15,2013-01-22 23:12:00,
2013-01-22 18:18:00,11.0,2.2,30.28,NW,304,5.0,-999.0,67,0.00,,,0.00,Wunderground v.1.15,2013-01-22 23:18:00,
2013-01-22 18:24:00,10.9,2.1,30.28,WNW,284,3.0,-999.0,67,0.00,,,0.00,Wunderground v.1.15,2013-01-22 23:24:00,
2013-01-22 18:30:00,10.9,1.8,30.29,WNW,296,3.0,-999.0,66,0.00,,,0.00,Wunderground v.1.15,2013-01-22 23:30:00,
2013-01-22 18:36:00,10.9,1.8,30.29,WNW,294,4.0,-999.0,66,0.00,,,0.00,Wunderground v.1.15,2013-01-22 23:36:00,
2013-01-22 18:41:00,10.8,2.0,30.29,WNW,294,3.0,-999.0,67,0.00,,,0.00,Wunderground v.1.15,2013-01-22 23:41:00,
2013-01-22 18:46:00,10.7,2.2,30.29,WNW,294,2.0,-999.0,68,0.00,,,0.00,Wunderground v.1.15,2013-01-22 23:46:00,
2013-01-22 18:52:00,10.5,2.6,30.29,NW,304,2.0,-999.0,70,0.00,,,0.00,Wunderground v.1.15,2013-01-22 23:52:00,
2013-01-22 18:57:00,10.4,2.9,30.29,WNW,300,2.0,-999.0,71,0.00,,,0.00,Wunderground v.1.15,2013-01-22 23:57:00,
2013-01-22 19:02:00,10.4,3.2,30.29,WNW,286,2.0,-999.0,72,0.00,,,0.00,Wunderground v.1.15,2013-01-23 00:02:00,
2013-01-22 19:08:00,10.3,3.1,30.29,WNW,298,2.0,-999.0,72,0.00,,,0.00,Wunderground v.1.15,2013-01-23 00:08:00,
2013-01-22 19:14:00,10.4,2.9,30.29,WNW,287,4.0,-999.0,71,0.00,,,0.00,Wunderground v.1.15,2013-01-23 00:14:00,
2013-01-22 19:19:00,10.4,2.9,30.29,WNW,300,4.0,-999.0,71,0.00,,,0.00,Wunderground v.1.15,2013-01-23 00:19:00,
2013-01-22 19:25:00,10.4,2.5,30.29,WNW,289,4.0,-999.0,70,0.00,,,0.00,Wunderground v.1.15,2013-01-23 00:25:00,
2013-01-22 19:31:00,10.4,2.5,30.29,SSW,202,4.0,-999.0,70,0.00,,,0.00,Wunderground v.1.15,2013-01-23 00:31:00,
2013-01-22 19:36:00,10.3,2.4,30.29,WNW,296,4.0,-999.0,70,0.00,,,0.00,Wunderground v.1.15,2013-01-23 00:36:00,
2013-01-22 19:42:00,10.3,2.4,30.29,WNW,288,4.0,-999.0,70,0.00,,,0.00,Wunderground v.1.15,2013-01-23 00:42:00,
2013-01-22 19:48:00,10.1,2.3,30.28,WNW,296,3.0,-999.0,70,0.00,,,0.00,Wunderground v.1.15,2013-01-23 00:48:00,
2013-01-22 19:54:00,10.0,2.2,30.28,WNW,296,3.0,-999.0,70,0.00,,,0.00,Wunderground v.1.15,2013-01-23 00:54:00,
2013-01-22 20:00:00,9.9,2.4,30.28,WNW,296,2.0,-999.0,71,0.00,,,0.00,Wunderground v.1.15,2013-01-23 01:00:00,
2013-01-22 20:05:00,9.7,2.2,30.28,WNW,296,2.0,-999.0,71,0.00,,,0.00,Wunderground v.1.15,2013-01-23 01:05:00,
2013-01-22 20:11:00,9.6,2.1,30.28,WNW,296,2.0,-999.0,71,0.00,,,0.00,Wunderground v.1.15,2013-01-23 01:11:00,
2013-01-22 20:17:00,9.5,2.0,30.28,WNW,296,1.0,-999.0,71,0.00,,,0.00,Wunderground v.1.15,2013-01-23 01:17:00,
2013-01-22 20:23:00,9.3,2.1,30.28,WNW,296,1.0,-999.0,72,0.00,,,0.00,Wunderground v.1.15,2013-01-23 01:23:00,
2013-01-22 20:29:00,9.3,2.1,30.28,WNW,296,1.0,-999.0,72,0.00,,,0.00,Wunderground v.1.15,2013-01-23 01:29:00,
2013-01-22 20:35:00,9.2,2.0,30.29,WNW,296,1.0,-999.0,72,0.00,,,0.00,Wunderground v.1.15,2013-01-23 01:35:00,
2013-01-22 20:41:00,9.1,1.9,30.29,WNW,296,1.0,-999.0,72,0.00,,,0.00,Wunderground v.1.15,2013-01-23 01:41:00,
2013-01-22 20:47:00,9.0,1.8,30.29,WNW,296,1.0,-999.0,72,0.00,,,0.00,Wunderground v.1.15,2013-01-23 01:47:00,
2013-01-22 20:53:00,9.0,1.8,30.28,WNW,296,1.0,-999.0,72,0.00,,,0.00,Wunderground v.1.15,2013-01-23 01:53:00,
2013-01-22 20:59:00,9.0,1.8,30.28,WNW,296,1.0,-999.0,72,0.00,,,0.00,Wunderground v.1.15,2013-01-23 01:59:00,
2013-01-22 21:04:00,8.9,1.7,30.28,WNW,296,1.0,-999.0,72,0.00,,,0.00,Wunderground v.1.15,2013-01-23 02:04:00,
2013-01-22 21:10:00,8.7,1.5,30.28,WNW,296,0.0,-999.0,72,0.00,,,0.00,Wunderground v.1.15,2013-01-23 02:10:00,
2013-01-22 21:16:00,8.5,1.6,30.28,WNW,296,0.0,-999.0,73,0.00,,,0.00,Wunderground v.1.15,2013-01-23 02:16:00,
2013-01-22 21:22:00,8.4,1.5,30.28,WNW,296,0.0,-999.0,73,0.00,,,0.00,Wunderground v.1.15,2013-01-23 02:22:00,
2013-01-22 21:28:00,8.2,1.3,30.28,WNW,296,0.0,-999.0,73,0.00,,,0.00,Wunderground v.1.15,2013-01-23 02:28:00,
2013-01-22 21:33:00,8.0,1.1,30.28,WNW,296,0.0,-999.0,73,0.00,,,0.00,Wunderground v.1.15,2013-01-23 02:33:00,
2013-01-22 21:39:00,7.8,1.2,30.29,WNW,296,0.0,-999.0,74,0.00,,,0.00,Wunderground v.1.15,2013-01-23 02:39:00,
2013-01-22 21:45:00,7.6,1.0,30.29,WNW,296,0.0,-999.0,74,0.00,,,0.00,Wunderground v.1.15,2013-01-23 02:45:00,
2013-01-22 21:51:00,7.6,1.3,30.29,WNW,296,0.0,-999.0,75,0.00,,,0.00,Wunderground v.1.15,2013-01-23 02:51:00,
2013-01-22 21:56:00,7.7,1.4,30.28,WNW,296,0.0,-999.0,75,0.00,,,0.00,Wunderground v.1.15,2013-01-23 02:56:00,
2013-01-22 22:02:00,7.9,3.8,30.28,WNW,296,0.0,-999.0,83,0.00,,,0.00,Wunderground v.1.15,2013-01-23 03:02:00,
2013-01-22 22:08:00,7.8,1.2,30.29,WNW,296,0.0,-999.0,74,0.00,,,0.00,Wunderground v.1.15,2013-01-23 03:08:00,
2013-01-22 22:14:00,7.5,0.9,30.29,WNW,296,0.0,-999.0,74,0.00,,,0.00,Wunderground v.1.15,2013-01-23 03:14:00,
2013-01-22 22:19:00,7.2,0.7,30.29,WNW,296,0.0,-999.0,74,0.00,,,0.00,Wunderground v.1.15,2013-01-23 03:19:00,
2013-01-22 22:24:00,7.1,0.6,30.29,WNW,296,0.0,-999.0,74,0.00,,,0.00,Wunderground v.1.15,2013-01-23 03:24:00,
2013-01-22 22:29:00,6.8,0.6,30.29,WNW,296,0.0,-999.0,75,0.00,,,0.00,Wunderground v.1.15,2013-01-23 03:29:00,
2013-01-22 22:35:00,6.5,0.3,30.29,WNW,296,0.0,-999.0,75,0.00,,,0.00,Wunderground v.1.15,2013-01-23 03:35:00,
2013-01-22 22:40:00,6.3,0.1,30.30,WNW,296,0.0,-999.0,75,0.00,,,0.00,Wunderground v.1.15,2013-01-23 03:40:00,
2013-01-22 22:46:00,5.9,-0.3,30.29,WNW,296,0.0,-999.0,75,0.00,,,0.00,Wunderground v.1.15,2013-01-23 03:46:00,
2013-01-22 22:52:00,5.6,-0.3,30.29,WNW,296,0.0,-999.0,76,0.00,,,0.00,Wunderground v.1.15,2013-01-23 03:52:00,
2013-01-22 22:58:00,5.4,-0.2,30.29,WNW,296,0.0,-999.0,77,0.00,,,0.00,Wunderground v.1.15,2013-01-23 03:58:00,
2013-01-22 23:04:00,5.1,-0.5,30.29,WNW,296,0.0,-999.0,77,0.00,,,0.00,Wunderground v.1.15,2013-01-23 04:04:00,
2013-01-22 23:09:00,5.1,-0.3,30.30,WNW,296,0.0,-999.0,78,0.00,,,0.00,Wunderground v.1.15,2013-01-23 04:09:00,
2013-01-22 23:15:00,5.0,-0.1,30.30,WNW,296,0.0,-999.0,79,0.00,,,0.00,Wunderground v.1.15,2013-01-23 04:15:00,
2013-01-22 23:20:00,4.8,-0.3,30.30,WNW,296,0.0,-999.0,79,0.00,,,0.00,Wunderground v.1.15,2013-01-23 04:20:00,
2013-01-22 23:26:00,4.6,-0.5,30.30,WNW,296,0.0,-999.0,79,0.00,,,0.00,Wunderground v.1.15,2013-01-23 04:26:00,
2013-01-22 23:31:00,4.5,-0.6,30.30,WNW,296,0.0,-999.0,79,0.00,,,0.00,Wunderground v.1.15,2013-01-23 04:31:00,
2013-01-22 23:37:00,4.4,-0.4,30.30,WNW,296,0.0,-999.0,80,0.00,,,0.00,Wunderground v.1.15,2013-01-23 04:37:00,
2013-01-22 23:43:00,4.4,-0.4,30.30,WNW,296,0.0,-999.0,80,0.00,,,0.00,Wunderground v.1.15,2013-01-23 04:43:00,
2013-01-22 23:49:00,4.3,-0.5,30.30,WNW,296,0.0,-999.0,80,0.00,,,0.00,Wunderground v.1.15,2013-01-23 04:49:00,
2013-01-22 23:54:00,4.2,-0.6,30.30,WNW,296,0.0,-999.0,80,0.00,,,0.00,Wunderground v.1.15,2013-01-23 04:54:00,